Погода Ачисай

Погода Ачисай : погода сейчас, прогноз погоды и архив. Всё, что Вы хотите узнать о погоде Ачисай!

Поиск расширенной информации на нашем сайте:

Другие новости

Новости СМИ2

Главная страница сайта

Новости сайта

03.07.2017

Напоминаем, что на нашем специализированном сайте Метеоцентр.Азия вы можете получить высокодетализированные автоматические прогнозы погоды по пунктам России, СНГ и мира в авиационном формате (включающие направление и скорость ветра, видимость, явления погоды, количество и форму облачности, нижнюю и верхнюю границу облачности).


Погода Ачисай - сегодня

Время (UTC), дата Ветер
(°,м/с) 
Видим.   Явления Облачность Т
(°С)
Тd
(°С)
f(%) Тe
(°С)
Pmin
(гПа)
dP
(гПа)
Po
(мм)
O2
(г/м3)
Тmin Tmax R s Состояние
почвы
03 15.08.17 050 (СВ) 20000 м    10/8 600 м кучево-дожд., верхняя 
[Cb cap|Ci sp]
+21 +2.5 29 +21  1007.3  688  257           
06 15.08.17 360 (С) 20000 м    9/9 600 м кучево-дожд. 
[Cb cap]
+25.1 +1.9 22 +25  1007  0.9  688  254  +15.6         
09 15.08.17 340 (С) 20000 м    8/8 600 м кучево-дожд. 
[Cb cap]
+24.9 +1.9 22 +25  1007.7  0.6  689  254           
12 15.08.17 320 (СЗ) 20000 м    10/10 600 м кучево-дожд. 
[Cb cap]
+24.6 +1.3 22 +25  1007.5  -0.3  688  254           
15 15.08.17 320 (СЗ) 20000 м    9/9 600 м кучево-дожд. 
[Cb cap]
+23.3 +1.9 24 +23  1007.6  -0.3  688  255    +26.8       
18 15.08.17 070 (В) 20000 м    10/10 600 м кучево-дожд. 
[Cb cap]
+22.3 +0 23 +22  1008.2  0.2  688  256    +26.8       
21 15.08.17 090 (В) 20000 м    9/9 600 м кучево-дожд. 
[Cb cap]
+21.3 +3 30 +21  1006.6  -1.6  687  256           
00 16.08.17 070 (В) 20000 м    8/8 600 м кучево-дожд. 
[Cb cap]
+21 +2.5 29 +21  1006.1  -0.6  687  256           
03 16.08.17 020 (С) 20000 м    8/8 600 м кучево-дожд. 
[Cb cap]
+21 +2.5 29 +21  1006.9  0.8  687  257           
09 16.08.17 360 (С) 20000 м  {гроза, ливн. осадки}  6/6 600 м кучево-дожд. 
[Cb cap]
+22 +5.5 34 +22  1007.2  0.4  688  255           
12 16.08.17 020 (С) 20000 м  {гроза, ливн. осадки}  3/1 600 м кучево-дожд., верхняя 
[Cb cap|Ci sp]
+23.7 +5 30 +24  1007.1  0.4  688  254           
15 16.08.17 050 (СВ) 20000 м    10/4 1000 м верхняя 
[Sc|Ci sp]
+21.7 +4 31 +22  1008.6  0.8  689  256    +24.1     
18 16.08.17 340 (С) 20000 м    ясно 
+20.6 +3 31 +21  1009.4  0.3  689  258    +24.1     
21 16.08.17 340 (С) 20000 м    3/3 1000 м 
[Sc]
+18.2 +5 42 +19  1010.1  689  259           
00 17.08.17 020 (С) 20000 м    1/1 1000 м 
[Sc]
+18.7 +4.8 40 +19  1010.3  0.3  689  259           
03 17.08.17 050 (СВ) 20000 м    ясно 
+20.4 +4 34 +20  1011.1  1.2  690  258           
06 17.08.17 070 (В) 20000 м    1/1 600 м кучево-дожд. 
[Cb cap]
+21.2 +5.8 37 +21  1012.7  1.7  691  257  +18.1         
09 17.08.17 050 (СВ) 20000 м    3/3 600 м кучево-дожд. 
[Cb cap]
+23.5 +4.6 29 +24  1012.5  0.5  692  256           
12 17.08.17 360 (С) 20000 м    3/3 600 м кучево-дожд. 
[Cb cap]
+24 +5.1 29 +24  1013.1  0.7  692  255           
15 17.08.17 050 (СВ) 20000 м    1/1 600 м кучево-дожд. 
[Cb cap]
+22.4 +5.5 33 +22  1014.8  1.1  693  257    +24.5       
18 17.08.17 360 (С) 20000 м    ясно 
+20.3 +0.4 26 +20  1016.2  0.5  693  260    +24.5       
21 17.08.17 050 (СВ) 20000 м    ясно 
+19.4 +5 39 +20  1014.9  -1.2  692  260           
00 18.08.17 360 (С) 20000 м    ясно 
+17.9 +4.5 41 +18  1016  0.4  693  261           
03 18.08.17 340 (С) 20000 м    4/0 верхняя 
[Ci sp]
+19.7 -0.7 25 +21  1015.5  693  260           
06 18.08.17 360 (С) 20000 м    3/0 верхняя 
[Ci sp]
+22 -0.7 22 +22  1014.9  0.2  693  258  +17.8         
Время (UTC), дата Ветер
(°,м/с) 
Видим.   Явления Облачность Т
(°С)
Тd
(°С)
f(%) Тe
(°С)
Pmin
(гПа)
dP
(гПа)
Po
(мм)
O2
(г/м3)
Тmin Tmax R s Состояние
почвы

Для получения пояснительной информации подведите курсор к названию столбца.

ПОГОДА Ачисай - архив

Всё, что Вы хотите узнать о погоде Ачисай - удобно и подробно!

Выберите нужную дату (начиная с 1 января 2015* года) и нажмите кнопку "Найти".
Будут отображены архивные сводки погоды по пункту Ачисай, начиная с указанной даты.


Отображать данные в формате CSV (для использования в таблицах Excel)


Внимание! Наш архив погоды предназначен исключительно для личного некоммерческого использования в познавательных целях. Если Вам необходимы официальные справки о состоянии погоды (для производственных, юридических, коммерческих и т.п. целей), обращайтесь в органы Росгидромета.

*Примечание: данная дата относится к архиву по метеостанциям СССР (Россия, СНГ, Балтия).
Архив по метеостанциям Зарубежной Европы и Азии (кроме Китая) хранится 10 дней, по другим регионам земного шара (Китай, Африка, Америка, Австралия, Океания) - 1 день.

Ачисай - район местоположения метеостанции


Название, широта, долгота, высота метеостанции:
Ачисай 43.6°ш. 68.9°д. 822 м над ур. моря [Казахстан]

Дополнительная информация

В oтличие oт бoльшинства пoгoдных сайтoв мы публикуем пoдрoбную метеoинфoрмацию в детальнoм прoфессиoнальнoм фoрмате.

Характеристики температуры и влажнoсти вoздуха измеряются на высoте 2 м в тени вдали oт зданий и деревьев.
Скoрoсть ветра измеряется на высoте 10 м (на урoвне рoста челoвека скoрoсть ветра ниже в 1.5-2 раза). Если метеoстанция нахoдится в гoрoде или в лесу, тo скoрoсть ветра занижена на 2-4 м/с пo сравнению с oткрытым местoм. Скoрoсть ветра над акватoриями крупных рек и oзёр, а также на вершинах хoлмoв на 2-5 м/с выше, чем в oбычных услoвиях.
Атмoсфернoе давление в разных тoчках местнoсти мoжет значительнo oтличаться oт давления на метеoстанции, в зависимoсти oт услoвий рельефа (при пoдъёме на 10 м давление пoнижается примернo на 1 мм рт.ст.).